Showing default

SKYSAT C11, 42987

Orbit data source: Space-Track

SKYSAT C11, 42987 is a payload satellite owned by Terra Bella (US) in SSO that was launched on Tue, 31 Oct 2017 UTC via a MINOTAUR-C 3210 launch vehicle from the Air Force Western Test Range (AFWTR). Payload-class satellites include a variety of spacecraft equipped with specific instruments for various scientific and technological missions. These include communications satellites like Starlink; space stations such as the ISS; scientific satellites like the Hubble; Earth observation satellites from companies like Planet Labs, Umbra, and HawkEye 360; GPS; miniature CubeSats for education and research; and military/defense satellites.

Loading next visibility...
Identifier
42987, 2017-068A
Orbit
SSO
Country
Flag of USUS
Related business
Manufacturer
Maxar SSL
Mission
Operational Commercial Imaging
Bus & Motor
SKYSAT-GEN2, Unknown motor
Mass
110 kg wet, 110 kg dry
Launch date (UTC)
2017-10-31 (8 years ago)
Launch vehicle
MINOTAUR-C 3210
Launch site
Air Force Western Test Range (AFWTR)
Object type
Payload
Rocket body
Debris
Shape & HBR
Box, 0.6 m
Radar Cross Section
0.888 m², Medium (>0.1 m² and < 1m²)

Expand to show TLE details & history
Last TLE update: 1 day ago

TLE from 1 day ago
0 SKYSAT C11
1 42987U 17068A   25257.35967577  .00013697  00000-0  31822-3 0  9997
2 42987  97.4056  33.0421 0001198 110.4701 249.6675 15.42467813440513
Epoch: 2025-09-14T08:37Z
TLE epoch observation values (Epoch: 2025-09-14T08:37:55.986Z)
Latitude
-0.00002°
Longitude
-90.02098°
Altitude
442.233 km
Speed
7.646 km/s
True Right ascension
02h 12m 10s
True Declination
0° 00' 00"
Sunlit
Object was in full shadow at epoch
Visualization orbit readout
Latitude
Unknown
Longitude
Unknown
Altitude
Unknown
Speed
Unknown
Apparent Right ascension
Unknown
Apparent Declination
Unknown
Sunlit
N/A
Visualization observer readout
Local Sidereal Time
01:18:06
Azimuth
Unknown
Elevation
Unknown
Doppler factor
Unknown
Orbital elements
Apogee altitude
436.581 km
Perigee altitude
434.948 km
Semi-major axis
6,813.902 km
Eccentricity
0.00012
Inclination
97.4056°
RAAN
33.0421°
Arg. of periapsis
110.4701°
True anomaly
249.65463°
Mean anomaly
249.6675°
Eccentric anomaly
249.66106°
Mean motion
3.85877 °/min
Orbital period
93.29 mins
BSTAR
0.00031822
Loading maneuver chart data...
Computing Atmospheric mass density...
Loading historical data...
Loading historical data...
Loading historical data...
Loading historical data...
Loading historical data...
Loading historical data...
Loading historical data...

Documentation

Showing up to 5 results
|